Regional Weather Roundup
Issued by NWS

Home | Current Version | Previous Version | Graphics & Text | Print | Product List | Glossary On
Versions: 1 2 3 4 5 6 7 8 9 10 11 12 13 14 15 16 17 18 19 20 21 22 23 24 25 26 27 28 29 30 31 32 33 34 35 36 37 38 39 40 41 42 43 44 45 46 47 48 49 50
000
ASUS45 KBOU 231507
RWRCO

WEATHER ROUNDUP FOR COLORADO
NATIONAL WEATHER SERVICE DENVER/BOULDER CO
900 AM MDT SAT MAY 23 2015

NOTE: "FAIR" INDICATES FEW OR NO CLOUDS BELOW 12000 FEET WITH NO
SIGNIFICANT WEATHER AND/OR OBSTRUCTIONS TO VISIBILITY.

COZ001>005-013-030-031-231600-
...NORTHWEST COLORADO...

CITY           SKY/WX    TMP DP  RH WIND       PRES   REMARKS
CRAIG          SUNNY     52  39  61 E10       29.99S
HAYDEN         SUNNY     48  36  61 E13       30.00S
MEEKER         SUNNY     49  40  71 MISG      29.99S
MOUNT WERNER   NOT AVBL
STEAMBOAT SPGS SUNNY     45  40  81 NW3       30.02S
WALDEN         PTSUNNY   41  34  75 CALM      30.06S
$$

COZ006>008-011-231600-
...WEST CENTRAL VALLEYS...

CITY           SKY/WX    TMP DP  RH WIND       PRES   REMARKS
GRAND JUNCTION SUNNY     56  42  59 SE10      29.95S
MONTROSE       SUNNY     57  34  41 E8        29.99F
EAGLE          MOSUNNY   48  43  81 CALM      30.04F
RIFLE          SUNNY     53  41  63 W6        29.97S
DELTA          SUNNY     57  41  55 MISG      29.98S
NUCLA          CLOUDY    50  32  50 CALM      30.05S
$$

COZ017>023-064>068-231600-
...SOUTHWEST COLORADO...

CITY           SKY/WX    TMP DP  RH WIND       PRES   REMARKS
DURANGO        MOSUNNY   51  29  42 S12       30.04S
CORTEZ         SUNNY     50  36  58 SW5       30.03S
PAGOSA SPRINGS MOSUNNY   47  32  55 S7        30.09S
TELLURIDE      MOSUNNY   42  22  45 SE5       30.09R
WOLF CREEK PAS NOT AVBL
$$

COZ009-010-012-014-032>034-037-058>063-231600-
...CENTRAL COLORADO...

CITY           SKY/WX    TMP DP  RH WIND       PRES   REMARKS
ASPEN          MOSUNNY   48  34  58 SE6       30.01F
BUENA VISTA    TSTM      44  33  64 W7        30.07F
COPPER MTN     MOSUNNY   34  25  69 S12G21    30.19S WCI  25
BERTHOUD PASS  CLOUDY    28  19  69 SE10G17   30.23R WCI  19
COTTONWOOD PAS TSTM      37  32  81 W9        30.12F VSB 1
GUNNISON       MOSUNNY   43  37  81 NE6       30.08F
KREMMLING      MOSUNNY   45  36  70 SW3       30.06F
LEADVILLE      PTSUNNY   35  32  88 CALM      30.11F
SALIDA         CLOUDY    48  39  72 NW3       30.14S
SUNLIGHT       FOG       34  34 100 CALM        N/A  VSB 1/4
WILKERSON PASS CLOUDY    34  32  93 CALM      30.21S THUNDER
$$

COZ069>075-231600-
...SAN LUIS VALLEY/SANGRE DE CRISTO MOUNTAINS...

CITY           SKY/WX    TMP DP  RH WIND       PRES   REMARKS
ALAMOSA        CLOUDY    49  37  63 VRB3      30.07S
LA VETA PASS   FOG      N/A N/A N/A MISG      30.16S VSB 1/2
SAGUACHE       PTSUNNY   46  36  66 NW13      30.08F
$$

COZ035-036-038>040-231600-
...NORTHERN COLORADO FRONT RANGE...

CITY           SKY/WX    TMP DP  RH WIND       PRES   REMARKS
DENVER INTL AP CLOUDY    51  49  92 SE5       30.03S
DMNS CITY PARK   N/A     52  49  89 NE1       30.03S
AURORA         CLOUDY    51  46  85 SE2       30.04S
FRONT RANGE AP CLOUDY    54  52  94 CALM      30.05R
ERIE MUNI ARPT CLOUDY    50  50  99 NW3       30.03S
BOULDER MUN AP CLOUDY    50  46  87 CALM      30.02F
CENTENNIAL     PTSUNNY   51  46  83 SE5       30.04S
BROOMFIELD     PTSUNNY   48  48 100 W3        30.04F FOG
FORT COLLINS   PTSUNNY   48  46  93 SW5       30.04F
LONGMONT       CLOUDY    52  50  95 CALM      30.04F FOG
$$

COZ041-046-047-076>085-087-088-231600-
...PIKES PEAK/PALMER DIVIDE AND SOUTHERN FOOTHILLS...

CITY           SKY/WX    TMP DP  RH WIND       PRES   REMARKS
COLO. SPRINGS  CLOUDY    50  46  86 E7        30.06S
A. F. ACADEMY  CLOUDY    49  44  81 S2        30.06R
ELLICOTT       NOT AVBL
FALCON         CLOUDY    47  46  95 E5        30.08F
FORT CARSON    CLOUDY    52  46  78 NE6       30.04S
LIMON          CLOUDY    53  49  86 S12G18    30.03S
MONUMENT HILL  NOT AVBL
TRINIDAD       PTSUNNY   53  48  83 CALM      30.02S
$$

COZ042>045-048>051-090-091-231600-
...NORTHEAST COLORADO...

CITY           SKY/WX    TMP DP  RH WIND       PRES   REMARKS
GREELEY ARPT   CLOUDY    52  48  87 CALM      30.03S
AKRON          CLOUDY    54  54 100 SE10      30.01F FOG
BURLINGTON     CLOUDY    55  53  93 SE20      30.02F
WRAY           CLOUDY   N/A N/A N/A SE7       30.01F HAZE
STERLING       CLOUDY    52  52 100 NE5       30.01R FOG
HOLYOKE        NOT AVBL
FORT MORGAN    CLOUDY    50  49  95 CALM      30.03S FOG
$$

COZ086-089-092>099-231600-
...SOUTHEAST COLORADO...

CITY           SKY/WX    TMP DP  RH WIND       PRES   REMARKS
PUEBLO         CLOUDY    55  50  83 NW8       30.00F
LA JUNTA       PTSUNNY   58  50  75 SE13      29.99S
LAMAR          CLOUDY    58  50  75 SE18G25   30.00R
SPRINGFIELD      N/A     54  52  93 SE10      30.02R
$$


USA.gov is the U.S. government's official web portal to all federal, state and local government web resources and services.